レナード彗星

C/2022 U1 ( Leonard )

English version
Home page
Updated on December 1, 2023

---------------------------------------------------------------------

・ プロフィール

発見日 2022年10月20日
発見光度 19.8等
発見者 G. J. Leonard (Mt. Lemmon)

・ 写真集

・ 軌道要素

Epoch 2023 Sept. 13.0 TT = JDT 2460200.5
T 2024 Mar. 25.68718 TT                                 Rudenko
q   4.2023479            (2000.0)            P               Q
z  +0.0000766      Peri.   78.55179     +0.63704813     -0.17746714
 +/-0.0000034      Node    72.51964     -0.29974710     -0.95357900
e   0.9996781      Incl.  128.14647     +0.71015587     -0.24329509
>From 221 observations 2022 Sept. 23-2023 Sept. 27, mean residual 0".5.

・ 光度変化

        m1 = 8.0 + 5 logΔ + 10.0 log r

---------------------------------------------------------------------

軌道要素はM.P.E.C. 2023-S260に掲載されたものです。
光度グラフはComet for Windowsで作成したものです。

---------------------------------------------------------------------

Copyright(C) Seiichi Yoshida (comet@aerith.net). All rights reserved.